Terminal Aerodrome Forecast
Issued by NWS Chicago, IL

Home | Current Version | Previous Version | Graphics & Text | Print | Product List | Glossary On
Versions: 1 2 3 4 5 6 7 8 9 10 11 12 13 14 15 16 17 18 19 20 21 22 23 24 25 26 27 28 29 30 31 32
000
FTUS43 KLOT 151141
TAFRFD
TAF
KRFD 151141Z 1512/1612 00000KT P6SM FEW200
     FM151500 09011KT P6SM BKN200
     FM151800 10014G20KT P6SM BKN150
     FM160100 08009KT P6SM SCT040 BKN120
     FM160900 06006KT P6SM BKN025=

USA.gov is the U.S. government's official web portal to all federal, state and local government web resources and services.